Simultaneous Nadir Overpasses (SNOs) Predictions

Prediction of SNOs between AQUA and GOES-15 Satellite Orbit:

Table of predicted SNOs for the next 14.0 days since TLE Epoch: 1/10/2015
Index Date Time (AQUA) AQUA Lat,Lon GOES-15 Lat,Lon Distance(km) Time Diff (sec)
1 01/11/2015 10:20:12 -0.91,-131.20 -0.10,-135.00 432.10 80
2 01/11/2015 22:41:37 -0.21,-136.39 0.10,-134.94 165.49 80
3 01/13/2015 22:29:30 0.43,-133.45 0.10,-134.87 162.24 80
4 01/14/2015 10:50:46 0.69,-138.61 -0.10,-134.91 421.23 80
5 01/15/2015 22:17:21 0.98,-130.49 0.09,-134.80 489.38 80
6 01/16/2015 10:38:38 0.08,-135.66 -0.10,-134.83 94.28 80
7 01/18/2015 10:26:29 -0.50,-132.70 -0.09,-134.75 232.00 80
8 01/18/2015 22:47:54 -0.60,-137.90 0.09,-134.68 366.56 80
9 01/20/2015 22:35:45 0.01,-134.94 0.09,-134.59 40.93 80
10 01/22/2015 22:23:36 0.65,-132.00 0.09,-134.49 284.33 80
11 01/23/2015 10:44:52 0.45,-137.15 -0.09,-134.52 299.34 80




NCC Satellite Simultaneous Nadir Overpasses (SNOs) Prediction Service
